Hourly Data Report for July 04, 2021

FLIN FLON
MANITOBA
Current Station Operator: ECCC - MSC

54°41'00.000" N
101°41'00.000" W
303.90 m
5050919
71954
WFO

Download Data

Hourly Data (July 2021)
Hourly Data Report for July 4, 2021
TIME
LST
Temp Definition
°C
Dew Point Definition
°C
Rel Hum Definition
%
Precip. Amount Definition
mm

Wind Dir Definition
10's deg

Wind Spd Definition
km/h
Visibility Definition
km
Stn Press Definition
kPa
Hmdx Definition


Wind Chill Definition


Weather Definition


00:00 25.0 17.3 62 0.0 33 10   96.74 30   LegendNANA
01:00 24.4 17.6 66 0.0 35 10   96.80 30   LegendNANA
02:00 22.9 17.5 72 0.0 32 4   96.81 29   LegendNANA
03:00 22.5 17.7 74 0.0 30 9   96.80 28   LegendNANA
04:00 21.3 17.5 79 0.0 32 8   96.78 27   LegendNANA
05:00 20.7 17.7 83 0.0 35 15   96.81 26   LegendNANA
06:00 20.6 17.3 81 0.0 36 20   96.88 26   LegendNANA
07:00 20.2 16.5 79 0.0 35 21   96.91 25   LegendNANA
08:00 18.9 15.4 80 0.0 34 18   96.99     LegendNANA
09:00 20.4 15.5 73 0.0 34 17   97.07 25   LegendNANA
10:00 21.2 15.6 71 0.0 34 21   97.10 26   LegendNANA
11:00 20.7 14.5 67 0.0 35 24   97.15     LegendNANA
12:00 21.0 13.6 63 0.0 34 22   97.22     LegendNANA
13:00 22.9 14.2 58 0.0 34 21   97.26 26   LegendNANA
14:00 24.0 14.2 54 0.0 35 22   97.27 27   LegendNANA
15:00 23.9 13.8 53 0.0 36 20   97.30 27   LegendNANA
16:00 23.3 13.7 55 0.0 35 21   97.37 26   LegendNANA
17:00 22.6 13.6 57 0.0 1 19   97.43 26   LegendNANA
18:00 21.1 12.8 59 0.0 2 20   97.49     LegendNANA
19:00 19.5 12.0 62 0.0 2 18   97.58     LegendNANA
20:00 17.8 11.2 65 0.0 2 17   97.65     LegendNANA
21:00 16.2 10.5 69 0.0 2 18   97.74     LegendNANA
22:00 14.8 9.4 70 0.0 2 17   97.82     LegendNANA
23:00 13.7 8.7 72 0.0 2 19   97.88     LegendNANA

Notes on Data Quality.

Legend

  • E = Estimated
  • M = Missing
  • NA = Not Available*
  • [empty] = Indicates an unobserved value
Date modified: